Wind_Speed
11 10 10 9 7 6 4 4 4 4 3 3 3 4 5 7 8 10 11 11 10 10 10 10 10 9 9 9 8 8 8 7 7 7 6 8 10 9 9 8 7 7 6 5 5 5 5 5 4 5 4 3 2 4 5 3 3 2 1 2 6 8 10 10 10 13 14 18 20 20 24 22 19 17 15 22 26 24 24 25 26 27 26 25 24 24 24 24
10 10 9 8 7 6 5 5 4 3 3 3 3 4 5 7 8 10 11 11 10 10 9 9 9 8 8 8 8 8 8 8 8 8 8 8 8 8 8 7 7 7 6 6 5 4 4 4 3 4 3 2 4 6 6 4 3 2 1 3 9 11 13 15 16 18 19 18 16 18 23 20 17 16 13 20 25 24 23 24 25 25 24 24 23 24 24 23
10 9 9 8 7 6 6 5 4 3 3 3 3 4 5 7 9 10 11 10 10 9 9 8 8 8 8 8 8 8 8 7 7 8 7 7 6 7 7 7 7 6 6 5 5 4 3 4 3 4 2 2 6 6 5 4 2 1 3 4 10 11 13 18 17 17 16 15 13 16 21 18 14 14 13 19 22 21 21 22 22 22 22 22 23 24 24 24
10 9 8 8 7 6 6 5 4 3 3 4 3 4 6 8 10 10 10 10 9 9 8 8 8 8 8 8 8 8 7 5 6 8 7 6 6 6 6 6 6 6 6 4 4 5 4 5 4 3 4 4 6 4 3 4 2 4 5 8 12 10 12 15 13 12 12 12 11 13 18 16 13 12 14 18 21 21 22 22 22 21 22 23 24 25 25 26
10 9 8 7 6 6 5 4 3 3 3 3 3 5 8 9 9 9 9 9 9 9 8 8 7 7 7 7 7 7 7 5 7 8 7 7 7 6 6 6 6 5 6 5 5 6 6 5 4 5 6 1 5 2 4 5 4 7 6 7 9 8 11 13 10 10 10 9 9 11 15 18 16 15 15 17 20 22 23 22 22 22 23 25 26 27 27 28
10 8 7 6 6 6 5 4 3 2 1 2 4 7 8 8 7 8 8 8 8 8 8 7 7 6 6 6 5 5 8 8 7 8 8 8 7 7 6 6 7 6 6 6 8 8 7 6 3 3 3 3 4 3 6 5 3 6 4 5 7 8 10 10 9 9 9 9 12 14 16 19 19 18 18 18 20 22 23 23 23 24 25 26 27 28 29 29
8 7 6 6 6 5 5 3 1 0 1 3 5 6 6 6 6 7 7 7 8 7 7 6 6 5 5 5 4 6 10 9 8 8 8 8 7 7 7 7 7 6 6 8 9 9 8 6 3 1 0 3 3 3 5 4 3 4 5 6 7 7 8 8 9 11 12 13 15 18 20 22 21 21 21 20 21 22 23 24 24 25 27 28 29 29 30 31
8 7 7 6 6 5 4 2 1 2 3 3 4 4 4 5 6 6 7 7 7 6 6 6 6 5 6 7 6 9 10 8 8 9 8 8 8 8 8 7 7 6 8 9 10 10 8 7 5 3 2 2 3 3 2 2 3 4 4 4 4 5 8 10 11 14 16 17 17 19 22 23 23 23 23 23 22 22 22 24 25 27 28 29 29 30 31 31
8 8 7 7 6 5 4 3 3 4 4 4 3 3 3 4 5 6 6 7 7 7 8 8 7 7 8 9 10 11 9 7 8 8 8 8 8 9 9 8 8 8 9 10 10 10 10 9 6 5 4 3 3 4 3 2 2 2 2 3 5 7 10 14 16 16 17 17 19 24 26 26 25 23 23 24 23 23 24 25 27 28 29 29 29 30 31 32
8 8 8 8 7 6 6 6 6 5 5 4 3 3 3 4 6 6 7 7 8 9 8 8 8 8 8 9 9 10 9 8 9 9 9 9 9 11 11 10 10 10 10 11 10 9 8 9 8 7 5 4 5 7 6 3 2 1 3 6 8 10 13 16 19 19 17 16 20 27 30 30 27 22 23 24 23 24 26 27 29 30 30 30 29 30 31 33
10 10 9 9 9 8 8 7 6 6 5 4 4 4 5 6 7 7 8 8 9 10 9 9 9 9 10 10 8 8 9 9 10 10 10 9 11 12 12 11 11 11 11 11 10 8 8 10 9 7 5 4 5 7 6 4 1 1 6 8 9 14 15 15 18 20 20 19 20 27 30 29 26 23 25 26 24 25 28 29 30 30 29 29 30 31 32 33
12 12 11 11 11 10 9 8 7 6 6 5 6 6 7 8 8 8 9 9 10 11 10 10 10 10 9 6 5 9 10 11 12 11 11 12 13 13 13 12 11 11 11 10 10 9 9 9 9 7 6 4 3 4 6 5 2 2 8 9 10 16 16 13 16 18 21 21 22 27 27 26 26 25 26 26 25 26 29 30 29 28 28 29 30 31 32 33
14 13 13 12 11 10 9 8 8 7 7 7 7 8 9 9 9 9 9 9 10 9 9 10 10 9 7 6 9 13 13 13 14 14 14 14 14 14 14 13 11 11 11 10 10 10 10 9 9 8 6 3 1 4 7 8 6 5 9 9 10 14 12 14 17 16 19 21 23 25 22 23 25 26 26 26 25 26 27 27 27 27 28 29 30 32 34 35
14 14 12 11 10 10 9 9 8 8 8 8 9 9 9 9 8 8 8 9 9 8 8 9 10 10 9 11 16 17 15 16 16 16 16 15 14 14 13 12 11 11 11 11 11 11 10 9 8 8 7 4 1 4 8 10 12 12 9 6 9 13 12 15 17 15 17 20 24 22 18 20 23 25 26 26 25 26 26 25 26 28 28 30 31 33 35 36
14 13 12 11 10 10 10 10 9 9 9 9 10 10 9 8 8 8 9 8 9 10 9 8 10 13 15 16 18 18 18 17 16 15 14 14 14 13 13 12 11 11 12 12 12 11 9 8 8 8 9 6 1 3 8 9 8 11 10 6 10 15 14 12 13 17 20 22 25 20 16 19 23 25 25 25 26 26 26 25 26 28 28 30 32 33 35 36
13 12 11 11 11 11 11 11 10 10 10 11 10 10 9 8 8 9 10 9 9 12 13 11 10 12 16 18 18 17 17 15 15 15 14 14 14 14 13 12 13 13 12 12 11 9 8 6 7 10 11 10 4 3 4 5 6 10 12 10 12 16 16 14 14 20 22 24 25 19 18 22 24 25 24 24 25 25 25 25 25 26 28 30 31 33 35 36
12 11 11 12 12 12 12 12 12 11 11 11 9 9 8 8 9 11 11 12 13 14 15 14 11 12 14 15 15 16 17 16 15 15 14 14 14 15 14 14 15 13 11 13 12 8 7 6 7 9 10 11 10 5 3 5 10 12 15 14 15 18 20 19 19 22 23 25 23 18 19 22 23 26 25 24 24 23 25 26 25 25 27 29 30 32 34 36
11 12 12 12 13 13 13 13 12 11 11 10 9 9 8 7 8 8 11 13 13 14 16 14 12 14 15 13 14 17 18 16 15 15 14 14 14 15 15 14 14 13 11 12 12 9 8 5 5 5 9 14 15 13 11 9 11 12 16 19 20 23 22 19 22 25 25 26 22 18 19 19 22 27 26 24 21 21 25 27 27 26 27 29 30 32 34 36
12 12 13 13 14 14 14 14 14 14 13 12 12 12 12 11 8 9 13 12 9 12 17 17 16 18 17 16 17 17 15 14 15 16 15 15 15 15 15 13 13 13 10 8 9 10 9 3 4 7 13 19 19 18 16 11 10 10 14 17 20 24 21 21 25 24 24 29 26 21 21 20 22 27 27 24 18 19 25 26 26 27 27 29 31 33 34 36
13 13 14 15 15 15 16 16 16 17 16 15 14 14 17 14 10 11 10 7 11 18 20 19 19 19 16 16 16 15 15 16 17 17 16 16 15 14 15 14 12 11 9 8 9 11 8 7 10 16 17 18 16 14 15 14 11 10 12 13 16 23 25 28 29 23 23 31 30 24 23 23 21 23 26 25 19 19 24 24 24 27 28 30 32 33 35 36
14 14 15 16 16 17 17 17 18 19 19 17 15 17 19 16 13 13 11 12 19 21 20 19 17 15 14 14 14 14 15 16 16 17 16 16 15 13 14 13 9 8 9 9 10 10 9 10 17 18 16 15 13 13 16 19 14 11 12 9 15 26 32 33 29 24 25 29 31 30 28 27 24 22 25 28 25 22 25 23 23 27 29 30 32 34 35 35
14 14 15 17 17 17 17 18 18 18 19 19 17 18 19 17 15 14 14 19 21 19 19 19 17 15 14 13 12 14 14 14 13 14 14 14 14 12 12 11 7 7 8 7 8 10 11 15 18 15 14 14 15 17 19 20 15 11 10 8 17 31 36 38 32 25 26 27 31 31 28 32 29 22 24 29 29 27 28 25 23 28 31 32 33 33 33 33
15 15 17 17 17 18 18 18 17 15 16 16 14 14 15 16 16 16 17 19 18 18 19 18 17 16 16 15 13 12 14 15 14 15 15 14 14 13 12 11 8 6 6 6 8 11 14 17 17 15 15 17 19 20 20 21 18 10 9 11 21 34 36 38 37 32 28 25 27 26 28 33 24 16 24 30 29 30 30 25 24 29 30 30 30 29 29 31
16 17 18 18 19 19 18 17 14 12 12 10 8 8 10 12 13 14 15 18 18 18 17 17 16 17 18 16 15 12 13 17 17 16 16 15 14 13 12 11 10 7 7 9 9 12 15 16 18 18 18 20 20 20 21 24 22 13 8 12 26 37 34 33 34 33 32 26 24 23 26 28 20 17 26 28 26 28 28 25 26 28 27 26 26 25 25 28
17 18 18 19 19 18 16 15 13 11 10 8 5 5 6 7 7 8 10 14 19 19 18 17 16 18 19 17 17 14 13 17 18 17 16 15 14 12 12 11 10 9 9 9 8 10 13 14 18 22 22 19 18 21 23 24 25 15 7 16 31 38 35 31 29 30 32 26 26 26 18 17 22 25 24 24 27 27 24 25 27 25 22 22 23 22 22 25
17 18 18 19 18 16 14 13 12 11 9 7 5 4 3 3 4 7 7 7 15 19 18 18 17 19 19 17 19 15 13 17 18 17 16 14 13 12 12 11 10 9 8 8 6 9 12 12 16 22 24 22 21 24 22 23 26 18 16 26 36 37 33 29 27 27 26 22 26 27 14 14 29 33 26 27 30 26 24 24 22 19 18 19 20 20 23 26
17 17 18 18 16 13 11 10 10 9 9 6 4 3 3 4 3 5 4 1 9 17 18 17 16 18 19 18 19 16 15 17 17 16 16 14 12 11 11 12 11 10 9 8 7 10 13 13 13 18 24 26 27 25 24 25 25 24 27 31 37 38 30 25 26 25 24 25 25 20 16 22 32 35 32 32 28 22 24 20 13 14 16 17 19 21 25 30
16 16 17 16 13 9 6 7 8 8 7 4 3 3 3 5 4 4 4 2 6 14 15 16 16 17 18 18 18 17 16 17 16 16 15 14 12 11 11 11 10 10 12 11 9 12 15 15 15 17 22 28 29 24 24 25 24 28 29 29 36 34 26 25 25 21 21 22 18 17 26 24 25 39 37 24 18 14 16 14 11 14 17 18 23 27 30 34
14 14 14 13 9 4 3 4 6 6 6 4 2 3 3 4 4 4 4 2 5 11 13 15 16 15 17 17 17 17 17 17 17 16 16 14 13 12 10 12 11 8 12 16 15 17 17 16 16 16 19 28 30 24 24 24 24 27 26 30 35 28 24 24 18 17 18 14 11 18 33 20 19 40 32 10 10 9 8 11 15 19 20 22 30 34 38 41
11 11 10 8 4 0 2 4 5 5 5 5 2 2 4 5 4 3 2 1 5 10 11 13 14 14 15 16 16 17 17 17 16 15 15 14 13 12 10 12 12 9 12 16 17 20 19 16 17 15 15 26 30 25 25 24 21 24 26 32 35 31 25 13 9 17 15 9 9 23 38 26 15 25 22 16 22 15 9 15 20 21 22 27 34 38 42 43
9 8 6 4 2 1 2 3 4 3 5 6 5 4 4 5 5 2 2 2 5 8 10 12 13 14 16 16 18 18 17 17 17 15 15 13 11 11 10 13 14 10 10 15 18 20 17 16 17 14 14 25 31 25 24 24 20 22 27 30 32 33 26 10 10 17 7 7 19 31 42 31 13 15 19 24 27 23 26 29 26 25 29 35 40 44 47 44
7 6 4 3 2 2 2 3 4 5 5 5 5 5 4 5 7 6 3 3 4 7 10 12 14 15 17 18 20 19 17 18 20 18 18 17 16 16 16 18 19 13 10 15 19 18 16 15 14 12 15 25 32 26 26 27 20 21 30 29 22 20 17 10 8 11 6 13 28 38 38 24 16 20 22 25 32 34 34 29 24 27 33 41 46 48 50 48
7 6 5 5 6 7 7 6 5 5 5 4 4 4 4 4 5 6 6 4 5 7 8 11 15 14 16 19 20 20 18 18 20 19 19 19 18 19 19 18 17 15 13 15 16 18 19 13 10 13 17 25 31 25 27 29 19 20 29 23 14 9 6 6 6 6 8 20 36 41 30 17 17 22 25 34 40 33 24 20 23 32 39 46 49 51 53 52
10 9 8 8 7 7 7 6 6 6 7 6 4 2 4 6 6 5 7 7 6 8 7 8 14 15 16 19 20 21 20 18 20 18 17 18 17 17 18 16 15 16 16 13 11 15 15 11 13 17 17 25 30 20 22 25 15 18 23 14 12 11 4 4 6 5 9 22 36 33 19 13 17 25 35 37 29 24 22 25 32 39 46 52 54 56 56 56
10 9 9 8 7 7 6 7 8 7 8 8 5 4 6 7 7 6 7 8 7 10 7 5 11 15 15 17 19 21 19 17 19 18 16 18 17 16 19 18 16 18 18 14 10 10 11 13 15 14 15 27 28 18 20 22 15 18 20 15 17 13 9 12 12 16 19 19 22 21 18 21 26 34 36 25 24 30 31 33 40 47 54 59 59 57 55 57
9 9 9 9 10 9 8 9 9 7 8 6 3 9 12 9 7 7 7 7 8 11 10 6 11 15 15 16 18 20 18 16 17 16 15 17 17 16 18 18 17 18 20 17 14 12 13 16 14 9 17 28 25 18 18 18 20 24 22 20 19 10 8 13 15 23 23 13 14 19 23 30 33 28 22 20 32 39 36 40 50 54 58 59 56 54 56 60
11 12 12 11 11 10 10 11 9 8 8 4 4 13 15 11 9 8 6 7 8 10 11 10 12 15 16 17 17 19 18 16 15 13 12 14 16 16 17 16 16 17 19 18 16 16 18 20 14 9 20 27 22 19 18 17 22 25 22 22 18 10 5 8 10 16 13 7 13 21 26 31 26 17 20 30 35 36 41 51 55 56 57 54 52 55 60 59
14 15 14 14 13 13 13 12 11 10 6 4 11 17 15 11 10 8 7 7 7 9 13 13 13 14 17 18 18 19 19 16 15 14 11 12 15 17 16 15 15 15 17 17 17 19 20 19 13 10 21 26 18 17 19 20 23 23 21 19 14 10 8 10 12 10 9 8 10 20 29 26 18 21 31 36 35 41 52 55 54 54 52 50 54 59 60 56
13 14 15 16 17 17 15 13 13 9 4 7 15 17 13 11 10 9 8 8 8 10 13 14 14 15 16 17 17 19 19 17 15 14 12 12 15 17 15 15 15 15 16 16 17 22 20 13 10 16 26 23 15 17 20 21 24 27 23 13 10 9 8 13 14 10 11 11 9 17 22 15 17 28 32 34 42 51 55 54 53 51 49 52 59 61 57 54
11 12 15 17 18 18 16 15 12 8 7 13 17 15 13 12 10 10 9 9 10 11 13 15 15 15 16 17 17 18 19 16 14 13 13 14 16 16 13 15 16 14 15 17 18 23 21 9 13 26 31 22 17 21 20 19 24 31 24 11 11 12 11 14 16 15 14 11 8 10 13 18 24 26 28 38 49 54 53 54 52 47 50 59 61 58 54 54
11 14 16 16 16 16 14 11 10 11 14 18 16 14 14 12 11 11 10 10 11 11 13 15 16 16 16 17 17 18 19 16 13 14 14 16 17 15 14 16 17 15 16 17 19 23 21 12 18 29 29 24 23 22 17 17 25 27 18 10 10 12 14 12 11 20 22 16 17 13 13 26 28 23 33 46 50 54 54 51 49 50 58 65 61 54 52 54
14 17 18 15 14 13 9 8 12 16 18 18 16 15 14 12 12 12 11 12 12 12 13 15 17 17 16 17 17 17 19 16 12 13 15 17 19 17 16 17 16 16 17 16 19 23 20 16 22 26 22 22 21 16 15 19 26 24 14 12 13 13 18 14 9 23 28 24 29 24 17 28 31 31 44 52 52 54 50 46 50 57 63 64 58 53 54 57
16 18 18 17 16 12 9 12 17 18 18 18 17 16 14 13 12 11 12 13 13 13 14 16 18 18 17 18 17 17 19 16 12 14 17 19 20 18 16 16 16 17 17 16 19 21 17 14 23 28 28 30 25 19 21 27 31 27 17 16 19 19 25 23 19 28 28 22 27 21 15 31 41 43 50 54 54 52 45 47 56 62 64 61 55 56 59 61
18 19 18 17 16 13 13 18 19 18 19 19 17 16 14 13 12 12 13 14 15 15 15 17 18 18 17 18 17 18 19 16 14 15 17 20 21 18 16 16 17 17 17 17 19 20 16 13 19 23 23 28 28 24 28 35 36 30 21 19 23 26 29 28 29 31 23 22 26 16 17 41 53 51 54 55 50 46 47 55 61 60 60 57 56 59 61 60
16 18 18 18 16 13 16 20 19 18 19 18 16 16 14 13 13 13 13 15 16 16 16 17 18 18 18 18 18 18 18 18 16 16 18 20 20 17 16 16 17 17 16 17 18 19 19 14 13 14 10 11 15 17 25 35 35 30 27 24 25 28 28 26 29 28 21 28 34 21 27 53 61 55 55 53 45 47 56 62 61 56 55 57 60 63 63 60
14 15 15 15 15 15 18 20 18 18 18 16 16 16 15 14 14 14 14 16 17 17 17 17 19 19 19 19 19 19 20 20 18 17 19 20 18 18 17 16 18 17 16 17 17 18 21 13 8 15 18 15 19 22 26 30 30 32 32 28 26 27 26 23 24 26 28 34 38 34 39 56 61 56 52 47 45 54 64 63 58 55 57 61 64 63 62 60
15 15 14 12 13 16 18 19 18 17 17 16 15 15 15 15 14 14 15 16 17 18 17 18 20 20 20 20 19 19 20 20 19 18 19 19 19 18 17 17 18 16 16 18 18 19 22 15 11 22 28 23 22 25 29 29 28 32 31 28 25 24 23 21 20 27 33 30 35 50 55 55 59 56 46 44 52 62 64 59 56 58 60 62 63 62 60 61
15 16 16 14 13 15 16 17 17 17 16 16 15 16 16 16 15 15 15 16 17 18 18 19 20 20 20 19 18 19 19 19 19 19 18 19 18 17 17 17 17 16 17 18 18 21 22 19 21 29 32 28 22 24 32 31 27 27 25 24 23 21 22 25 24 25 31 30 39 57 60 54 56 52 42 48 60 62 58 56 57 60 62 63 62 61 61 64
16 16 16 15 14 15 15 15 16 16 15 15 15 16 16 16 16 16 16 16 18 19 19 20 20 20 20 19 17 18 20 21 20 19 19 19 18 18 18 17 16 16 18 18 19 22 22 23 28 31 34 32 23 23 33 30 22 22 21 19 21 22 24 29 29 29 33 40 48 53 53 51 49 44 46 56 61 58 54 54 57 61 63 63 61 62 64 67
16 16 16 15 15 15 15 15 15 14 15 15 15 15 16 16 17 17 16 17 18 19 20 20 20 20 19 18 17 18 20 21 21 20 20 19 18 18 17 17 17 17 19 19 20 22 24 28 30 31 34 33 26 29 37 27 16 19 18 17 22 27 27 28 33 40 45 51 52 47 46 47 43 44 54 60 57 53 54 56 59 60 60 60 61 64 67 68
16 15 15 15 15 15 15 15 14 13 14 14 15 15 15 16 18 18 17 18 19 20 20 20 21 20 19 18 18 19 20 21 20 19 19 18 18 17 16 17 18 18 20 20 21 23 27 30 33 31 30 29 28 34 38 26 12 14 15 19 26 30 29 28 35 45 51 52 50 44 40 41 45 53 60 58 52 51 54 58 57 54 55 58 61 64 68 70
15 15 15 14 15 15 14 14 14 13 13 14 14 15 16 17 18 18 18 18 19 20 20 21 22 22 21 19 19 20 20 21 20 19 19 18 17 17 17 18 18 19 20 20 21 25 27 31 35 29 25 30 34 35 35 24 10 9 15 24 28 27 30 35 42 51 53 47 42 40 38 41 51 60 61 56 52 50 53 56 54 52 54 58 61 65 68 70
Wind_Direction
144 143 142 143 145 148 144 144 138 121 102 70 54 43 36 31 24 20 15 10 11 9 8 5 1 359 357 359 358 355 358 357 354 354 353 357 0 358 355 351 347 347 347 348 346 345 335 335 348 340 332 328 321 324 321 312 296 263 332 313 280 266 250 251 261 266 276 281 285 288 286 293 306 310 304 293 301 312 311 309 310 311 311 309 309 310 310 310
148 147 146 146 150 156 158 154 142 126 102 69 57 45 32 20 12 10 9 7 5 2 1 359 356 353 354 358 357 358 355 353 358 3 360 357 356 350 349 344 340 340 337 339 335 336 336 340 344 317 320 334 310 316 316 310 318 276 213 287 273 262 262 265 274 283 288 290 292 289 291 305 316 312 297 288 302 312 310 310 309 310 310 308 308 307 305 304
154 153 150 152 159 164 162 156 145 132 100 78 66 45 23 9 2 3 5 1 359 358 355 356 356 354 357 0 2 1 356 3 13 14 9 359 351 345 346 340 337 335 332 334 332 345 348 353 2 323 38 144 276 295 295 295 326 253 188 255 263 264 273 271 276 287 292 296 296 290 297 316 326 319 308 298 306 312 311 311 309 307 305 302 300 298 297 297
160 158 159 163 167 166 163 158 146 118 92 83 67 34 12 5 0 1 360 354 353 354 356 359 359 360 5 6 9 6 358 8 16 13 9 0 357 351 349 342 339 334 334 341 346 5 7 11 29 1 76 153 271 289 267 281 279 245 226 246 258 263 275 280 294 302 302 304 301 294 302 320 330 323 315 309 311 314 317 314 310 307 302 299 296 295 296 296
164 164 168 170 170 166 165 158 139 111 89 70 38 17 8 5 360 358 352 348 352 356 0 1 2 7 9 15 18 9 6 12 7 7 8 6 4 358 357 352 347 349 354 3 9 19 21 23 48 49 70 189 297 308 261 284 273 263 257 253 265 273 278 290 312 312 312 314 308 305 308 321 329 326 320 313 311 314 316 313 309 306 302 300 299 298 299 298
165 165 167 168 171 170 168 159 143 120 71 13 1 8 9 5 357 352 348 350 354 358 1 2 10 15 22 34 26 22 32 28 13 10 14 13 10 9 10 6 6 10 10 14 18 17 17 24 37 59 93 226 270 267 273 294 284 278 290 288 284 282 287 305 320 317 324 327 322 320 320 324 327 325 321 314 311 312 311 309 307 304 303 302 301 301 300 300
155 152 155 162 169 170 171 170 165 30 14 357 1 11 10 359 351 348 350 358 3 4 8 17 29 33 48 50 33 43 39 27 24 22 20 19 20 19 16 18 17 9 11 15 17 18 17 25 33 29 204 243 287 294 287 301 304 305 310 307 297 292 307 324 329 329 331 334 333 329 326 326 326 324 319 314 312 311 309 307 305 303 304 303 303 301 300 300
139 139 146 154 161 168 172 171 111 62 49 38 28 21 7 355 352 356 4 13 19 24 35 46 50 49 52 43 38 47 36 24 33 29 23 25 23 21 16 15 7 2 19 20 18 27 28 30 42 29 7 354 350 344 318 305 329 339 313 306 317 329 338 339 340 339 334 337 335 330 328 326 327 323 315 313 313 311 309 307 305 304 304 304 303 303 302 302
133 135 141 146 151 155 146 115 88 75 70 65 52 30 9 3 7 16 25 33 39 45 53 60 58 50 46 38 39 48 42 32 36 32 26 22 18 16 9 7 6 12 27 28 25 34 36 36 41 30 35 42 23 21 4 339 353 355 344 357 358 355 357 352 347 343 337 336 336 334 332 328 327 320 310 315 316 312 311 308 307 307 306 307 306 307 308 307
130 133 134 137 135 127 112 99 89 85 82 74 59 40 29 30 37 46 53 57 59 57 56 61 58 50 48 42 38 44 42 34 32 27 21 16 13 14 15 18 20 25 35 37 35 39 39 39 36 30 44 62 49 37 22 20 51 56 19 8 9 0 353 353 351 348 337 328 337 339 332 329 329 319 312 320 319 312 312 309 309 309 309 310 311 312 313 311
130 129 127 123 117 109 102 98 93 89 81 73 67 58 56 60 65 68 69 68 64 60 55 51 49 43 45 42 34 36 35 29 28 26 22 22 24 26 31 34 33 36 39 39 37 35 37 38 34 33 47 56 42 31 27 28 5 18 6 355 6 359 341 346 354 351 340 330 337 338 329 328 328 320 319 323 319 313 312 311 311 311 312 314 314 315 315 313
124 122 117 113 109 104 100 96 90 84 78 78 74 71 76 78 80 77 72 68 61 58 53 46 40 36 43 45 31 35 33 29 32 36 36 37 40 40 39 39 38 37 36 35 31 25 30 33 27 28 37 33 23 29 41 33 323 330 11 4 359 348 330 335 347 344 341 335 335 334 329 328 325 322 322 318 314 313 312 313 314 314 313 314 315 315 315 314
117 115 112 110 107 103 98 91 86 83 83 85 85 86 88 87 85 80 71 65 59 55 50 45 37 37 52 62 52 49 45 42 43 46 46 45 44 40 38 38 35 33 32 27 22 20 22 21 14 21 30 24 39 62 48 37 33 18 14 20 4 345 328 329 334 333 337 333 332 331 326 324 320 319 319 312 311 313 313 317 318 316 314 314 313 313 314 314
114 112 112 111 106 101 94 89 87 89 93 95 96 94 91 90 85 78 71 63 56 48 45 49 42 48 64 62 57 55 52 50 48 47 46 44 41 36 34 33 30 31 29 21 19 21 19 13 9 16 29 28 157 93 44 33 37 19 3 18 358 345 339 332 322 322 332 331 332 328 316 315 314 315 318 315 314 315 317 321 321 318 315 313 312 312 313 315
113 111 112 109 102 98 94 94 94 96 98 96 94 91 89 88 83 77 67 57 56 50 52 63 58 60 66 62 56 51 48 47 45 42 39 37 35 31 29 28 25 23 21 19 18 19 15 13 21 28 37 32 221 123 48 36 30 3 360 9 339 336 343 334 313 321 336 334 332 326 308 305 307 315 322 317 315 316 316 319 320 319 316 313 313 313 313 313
113 112 110 103 101 101 99 100 98 96 94 89 88 86 84 83 84 79 62 53 62 60 56 60 62 62 62 59 55 49 44 38 35 33 30 30 28 25 24 22 19 16 17 21 20 16 7 6 33 43 45 39 36 113 84 38 3 354 8 5 337 341 348 343 329 329 335 331 327 320 306 301 302 314 323 318 315 315 312 312 316 317 315 314 314 314 313 312
114 110 105 104 106 105 103 100 94 91 87 85 83 81 81 79 81 78 66 63 67 66 59 53 56 63 63 61 54 46 36 28 27 27 24 25 23 21 18 16 16 8 5 17 19 11 359 8 37 38 35 36 38 73 106 10 355 358 5 356 347 354 354 347 336 327 325 323 321 313 304 301 299 306 314 314 314 313 306 304 307 310 312 314 313 311 310 309
112 108 109 112 112 107 101 95 89 84 79 78 77 77 78 80 82 70 59 64 65 66 65 60 62 65 62 53 41 35 27 17 18 21 20 19 18 17 13 12 14 8 10 20 14 7 16 32 35 5 4 20 23 31 38 10 352 355 358 356 354 353 348 339 326 319 321 322 322 317 308 302 296 299 305 309 311 310 304 299 301 304 307 310 308 307 307 306
114 116 119 118 111 106 101 95 90 82 75 69 70 77 78 80 87 67 61 70 69 64 62 55 54 55 51 40 34 31 21 8 13 17 14 13 14 12 8 8 13 19 30 23 4 15 20 351 336 352 6 19 20 23 26 5 345 344 350 1 357 343 332 326 322 319 322 321 322 325 312 300 295 294 299 306 309 310 304 299 298 299 301 304 304 304 304 303
122 124 121 116 111 109 104 99 92 83 74 65 64 74 76 77 81 72 74 83 61 55 55 47 45 49 45 38 34 26 14 9 15 14 7 10 13 9 5 6 14 20 19 8 11 16 352 325 13 24 21 23 19 17 16 1 343 323 336 357 352 338 326 326 331 329 325 316 320 332 317 304 305 293 290 297 301 306 303 298 299 299 297 296 298 299 299 300
125 122 120 118 116 113 107 100 94 88 83 75 68 72 75 76 75 73 75 70 59 55 55 50 47 48 41 37 31 21 14 12 14 9 5 10 10 7 5 6 13 12 360 1 9 359 334 356 29 29 19 16 8 9 13 3 345 319 331 336 330 336 330 331 337 331 323 313 318 334 320 309 318 299 286 292 293 296 297 293 298 299 292 288 290 292 293 294
123 122 124 124 120 114 106 101 97 94 91 85 78 76 77 76 70 67 65 65 61 55 55 50 44 41 33 26 20 18 15 12 12 8 7 10 9 10 8 3 9 12 7 8 3 357 7 27 33 21 8 8 3 7 10 2 354 333 332 313 316 334 334 333 340 333 322 312 317 332 318 308 317 302 290 299 293 284 284 286 296 298 289 285 287 288 289 290
127 129 131 126 120 112 105 102 99 95 90 85 83 82 82 78 69 63 60 62 60 53 51 44 36 34 31 22 13 12 9 9 10 8 10 12 10 11 8 4 6 4 3 16 15 15 28 34 27 11 3 6 6 5 2 359 6 354 320 303 319 337 336 328 334 335 325 316 320 328 316 311 322 315 305 304 291 281 281 283 290 290 284 281 284 286 289 292
134 135 133 125 119 113 108 105 98 90 81 75 77 83 86 81 73 62 53 55 53 46 43 37 28 27 26 20 15 11 8 11 10 8 12 12 10 11 6 5 4 353 349 2 12 20 31 32 19 12 9 8 5 359 356 357 6 4 316 307 327 339 338 326 328 329 325 330 334 326 314 315 325 329 315 301 286 287 289 283 283 285 282 282 285 290 296 299
138 137 133 127 122 117 110 101 90 82 73 67 63 73 85 75 59 40 31 41 40 35 33 27 20 22 21 16 15 14 10 11 9 9 12 12 13 12 6 7 5 1 360 360 4 10 20 21 14 16 16 11 2 355 356 354 357 3 327 322 337 342 341 334 330 326 323 331 337 327 313 310 317 323 316 298 290 291 285 280 283 286 286 286 288 293 298 300
141 141 136 133 128 119 107 92 80 71 62 61 57 53 46 1 346 353 1 27 26 24 25 19 15 17 16 14 15 12 8 9 8 10 12 11 14 12 9 14 13 12 6 354 352 351 354 358 5 15 16 11 4 358 357 350 349 352 334 335 346 348 343 336 328 322 312 310 326 325 305 305 318 324 324 309 300 287 275 279 285 284 281 284 287 292 298 304
145 146 144 141 134 120 104 79 64 55 48 52 51 44 27 5 344 346 2 47 10 13 19 16 15 14 12 14 13 13 15 9 6 10 13 11 11 11 13 16 17 25 22 3 347 338 333 328 338 360 7 6 3 359 354 350 346 341 339 342 348 347 342 333 321 312 301 300 315 323 333 333 320 321 324 312 300 280 274 281 280 276 276 277 287 302 313 319
150 153 152 148 139 121 95 57 37 29 29 31 24 30 25 26 33 26 46 96 359 6 11 12 14 11 9 11 11 16 19 10 8 12 11 11 10 8 11 11 12 22 29 22 3 345 334 323 326 341 355 1 1 356 352 351 343 338 342 343 341 341 339 329 316 303 301 303 299 316 345 342 311 316 322 308 294 280 272 269 254 265 274 287 305 316 320 321
152 158 160 158 149 119 60 21 3 1 8 2 1 25 26 28 32 39 55 59 355 3 7 9 13 9 7 9 11 16 17 12 14 13 9 11 10 6 7 6 2 1 13 17 8 357 348 335 330 333 347 356 356 354 354 353 343 340 344 339 336 340 338 332 323 308 301 291 277 320 341 340 303 317 324 318 311 288 240 240 250 266 284 311 326 324 320 321
150 157 162 165 165 120 326 321 328 341 5 13 33 50 44 36 14 23 55 7 353 5 7 7 9 10 9 9 10 13 15 15 16 13 10 12 8 1 360 0 0 355 359 5 0 356 354 342 331 330 343 352 351 352 357 355 345 345 347 340 338 344 346 350 353 330 305 276 302 328 334 329 306 314 317 314 312 297 266 272 280 295 312 329 332 325 323 325
135 142 151 166 199 267 284 314 348 22 35 41 65 75 64 43 21 52 81 337 348 4 6 5 6 8 7 6 11 13 11 11 13 11 7 9 4 356 357 2 7 10 358 355 354 356 357 343 329 326 334 345 348 351 358 359 352 352 352 344 342 347 351 4 356 344 330 290 319 327 329 325 307 312 318 316 312 309 308 306 311 326 332 332 329 325 326 324
127 134 145 156 139 77 57 47 44 53 48 46 67 72 65 46 40 62 68 345 351 3 4 7 6 6 6 7 11 12 9 9 10 8 6 8 7 8 14 14 15 20 359 346 353 359 356 343 327 321 331 343 347 351 358 0 360 359 356 351 351 348 346 351 344 346 330 301 316 324 324 316 300 310 322 323 319 316 317 321 328 328 327 328 327 326 327 324
120 117 112 97 81 72 67 63 63 69 66 64 80 76 73 71 53 55 53 25 3 357 355 5 7 3 5 9 9 8 9 10 8 8 10 9 8 15 19 16 16 16 357 345 355 2 357 352 335 327 333 344 348 351 354 358 5 3 358 357 359 349 332 335 327 330 314 303 314 320 315 305 307 313 314 314 314 317 325 333 328 322 325 327 326 328 327 324
98 91 86 78 74 74 71 73 79 81 74 70 79 92 90 85 77 71 57 40 18 0 341 354 5 2 4 8 8 6 6 8 6 5 8 6 6 11 10 8 9 5 0 356 359 2 358 349 333 329 334 343 348 351 350 355 5 358 358 359 345 338 309 305 308 306 303 302 312 318 314 315 324 319 313 312 322 336 330 320 320 325 326 325 325 327 325 323
85 82 82 80 80 81 81 84 83 83 78 70 69 90 100 95 83 77 54 38 30 15 359 347 3 5 6 6 7 7 4 5 3 359 1 1 1 5 1 1 1 359 6 7 355 355 349 335 331 328 337 343 344 347 347 353 357 348 353 354 340 332 290 280 284 295 302 299 307 318 314 315 320 316 310 314 336 332 313 309 320 324 323 322 323 323 323 323
89 92 95 92 89 87 85 81 77 80 78 64 66 84 90 96 88 76 53 38 32 22 18 9 5 9 10 7 8 7 3 5 5 359 353 351 353 358 354 354 356 356 7 9 358 351 337 337 347 341 344 347 343 343 348 351 349 346 348 345 342 341 289 281 289 304 308 295 301 312 308 313 321 317 306 312 322 318 312 318 324 324 323 322 321 321 322 324
101 102 101 96 93 90 81 75 73 78 75 57 87 89 89 93 85 75 58 40 33 26 23 20 13 8 7 8 9 7 4 5 7 1 347 342 345 349 347 349 353 352 0 4 3 357 335 336 357 347 341 349 343 338 348 347 343 345 342 336 342 1 329 301 309 311 311 297 300 309 310 315 322 318 313 318 320 322 325 325 324 323 323 322 321 321 323 325
100 99 98 93 89 82 74 72 69 72 87 94 88 88 87 86 79 72 59 41 32 25 22 23 18 8 7 8 4 4 7 4 2 2 355 345 343 343 341 344 347 348 353 357 1 1 342 332 347 342 343 354 350 339 342 338 337 340 336 328 336 354 334 321 324 310 308 310 299 310 313 314 320 319 321 327 330 331 329 326 326 325 325 325 324 323 326 327
98 98 96 90 85 79 73 72 71 77 112 95 83 86 84 80 75 66 55 42 31 24 22 22 17 10 10 8 2 3 6 1 359 360 355 346 341 340 338 339 344 345 347 351 355 359 354 332 315 334 350 358 351 339 337 332 333 337 338 328 310 320 317 318 320 299 301 309 302 314 313 309 324 321 322 331 332 330 329 327 328 328 326 326 325 326 328 328
96 93 88 82 80 78 72 73 80 91 93 77 77 84 82 76 70 60 52 41 32 26 23 18 14 12 10 6 4 3 1 358 356 353 350 346 343 342 338 336 341 342 342 346 349 354 0 342 302 331 351 357 341 337 338 335 335 336 340 329 300 316 329 321 313 307 311 311 305 316 305 305 323 323 319 327 329 328 328 326 326 327 325 325 326 328 329 328
84 80 77 74 73 75 76 80 78 70 71 73 76 80 77 71 62 55 46 37 31 26 21 16 12 13 10 5 4 360 357 356 354 349 348 347 344 340 335 333 336 339 339 344 352 354 356 345 324 334 346 346 335 334 333 334 339 338 336 320 306 324 336 329 314 317 320 312 302 305 294 302 315 323 323 327 329 327 327 325 325 325 324 326 328 329 329 328
80 76 75 72 70 73 81 82 67 60 68 73 72 71 69 63 56 49 40 34 29 23 20 16 12 12 8 4 2 358 356 357 353 347 345 346 344 337 332 331 332 337 339 343 354 354 350 343 337 333 334 336 335 333 331 336 343 344 337 321 319 323 328 327 307 311 316 309 303 301 289 297 312 326 327 328 328 326 325 326 327 325 325 328 329 328 329 330
82 78 75 72 72 74 78 75 67 63 67 67 64 62 59 54 50 43 37 32 26 21 18 14 11 10 5 2 1 358 358 358 352 344 343 345 344 338 332 330 330 333 337 344 351 353 354 350 341 335 335 341 343 341 341 343 344 343 334 320 316 315 318 315 306 310 311 305 308 308 288 299 315 327 328 327 327 324 322 325 328 326 326 329 330 329 330 331
76 76 73 69 69 70 70 69 64 60 61 60 58 55 51 49 45 38 34 28 23 20 16 11 9 7 3 2 0 359 360 359 352 343 342 342 341 337 332 328 330 331 334 342 348 351 356 355 348 344 341 343 347 344 340 340 339 335 326 314 309 311 312 309 313 317 308 303 315 314 286 302 316 325 326 327 327 324 324 326 328 328 328 328 329 330 332 333
65 70 70 67 63 59 61 63 59 55 55 53 51 49 45 43 40 34 29 24 21 18 13 9 7 4 2 360 357 358 360 358 352 342 340 342 339 335 331 327 328 329 330 337 341 346 352 355 359 358 344 328 328 325 328 331 327 322 320 314 307 308 307 308 318 319 308 309 314 300 290 305 316 324 328 329 327 324 327 328 329 330 328 327 328 330 332 334
57 61 64 64 58 50 54 58 55 50 49 45 44 44 41 39 35 29 25 21 17 15 12 8 5 3 1 358 356 357 357 354 351 343 339 341 338 333 329 325 326 325 326 331 332 341 350 350 345 345 339 318 304 311 328 330 318 313 315 313 309 307 304 309 319 317 314 314 310 305 308 311 316 325 330 330 328 327 329 330 330 331 328 327 330 331 332 334
55 55 53 55 53 47 49 52 49 46 44 40 38 39 37 35 31 26 22 17 14 12 9 6 5 2 359 356 355 355 353 348 346 344 340 338 336 331 325 322 323 321 321 327 329 339 347 345 331 337 340 334 320 325 339 334 314 309 310 308 307 303 301 310 317 316 321 319 309 315 321 317 317 326 330 329 330 330 331 331 330 329 328 330 333 334 332 332
50 52 49 49 51 48 47 47 44 40 39 36 33 34 32 29 27 23 18 15 11 8 6 5 5 1 357 356 353 351 348 344 344 343 339 336 335 329 323 321 321 319 321 326 329 336 345 346 338 336 338 341 338 338 341 332 313 309 308 303 300 294 299 313 314 316 324 319 311 316 320 318 319 324 325 328 331 331 330 331 330 329 331 333 336 336 333 331
45 47 46 44 45 45 44 42 39 36 34 32 29 29 27 24 23 20 15 12 9 6 5 4 2 359 356 353 350 347 345 344 343 340 337 336 333 327 323 321 321 319 321 324 326 333 344 345 340 336 337 345 346 340 341 335 318 313 308 295 296 298 303 311 314 320 325 320 316 317 317 317 320 322 323 326 330 330 330 332 332 332 335 336 336 335 333 332
40 42 42 40 38 40 40 38 36 33 30 28 26 25 23 20 18 16 13 10 7 5 3 360 359 357 354 349 347 346 344 342 340 338 336 335 332 328 323 321 321 319 319 322 323 331 341 343 342 338 338 345 348 340 343 345 320 308 300 288 302 309 309 314 319 324 327 324 323 321 316 317 320 321 323 327 331 332 334 335 335 336 338 338 334 332 333 334
37 37 38 37 34 36 36 34 32 30 26 24 22 20 18 16 15 14 11 7 5 3 0 357 355 353 351 348 346 344 344 342 339 337 336 334 331 329 324 320 320 317 318 321 322 330 339 340 344 344 335 338 344 340 344 350 320 293 297 304 312 313 313 318 322 324 327 326 325 323 320 319 320 320 323 330 334 335 335 336 337 338 340 339 336 335 336 338
33 32 33 34 31 32 33 30 29 27 24 22 17 15 14 12 11 10 8 6 3 0 357 354 352 350 349 349 346 344 344 342 340 337 335 335 332 329 325 319 317 316 317 319 322 331 340 341 346 348 331 332 344 342 341 347 328 299 313 312 311 312 313 317 320 324 329 329 324 322 318 316 318 323 327 331 334 335 334 336 338 339 338 337 337 338 339 339
Height
3120 3121 3122 3123 3124 3125 3126 3126 3126 3126 3126 3127 3127 3127 3127 3127 3127 3127 3127 3126 3126 3125 3125 3124 3124 3123 3123 3122 3121 3120 3120 3119 3119 3118 3118 3117 3117 3116 3116 3115 3115 3114 3113 3113 3113 3112 3112 3111 3110 3110 3111 3111 3111 3111 3111 3111 3111 3111 3110 3111 3111 3110 3108 3107 3107 3106 3107 3106 3105 3103 3098 3100 3101 3100 3098 3092 3091 3093 3091 3090 3088 3087 3087 3086 3085 3085 3084 3083
3121 3122 3122 3123 3124 3125 3126 3126 3127 3127 3127 3127 3127 3128 3128 3128 3127 3127 3127 3127 3126 3125 3125 3124 3124 3123 3122 3122 3121 3120 3119 3119 3118 3118 3117 3117 3116 3116 3115 3115 3114 3114 3113 3113 3112 3112 3111 3111 3110 3111 3111 3111 3111 3111 3111 3110 3110 3110 3110 3111 3109 3108 3107 3106 3106 3105 3106 3104 3104 3101 3097 3099 3100 3099 3098 3092 3090 3090 3089 3088 3087 3086 3085 3084 3084 3083 3082 3082
3121 3122 3123 3124 3125 3126 3126 3127 3127 3127 3128 3128 3128 3128 3128 3128 3128 3127 3127 3126 3126 3125 3125 3124 3124 3123 3122 3121 3121 3120 3119 3118 3118 3117 3117 3116 3116 3116 3115 3114 3114 3113 3113 3112 3112 3111 3111 3111 3111 3111 3110 3111 3111 3111 3110 3110 3109 3109 3109 3109 3107 3107 3107 3105 3105 3105 3104 3103 3102 3099 3096 3098 3098 3096 3095 3092 3090 3089 3088 3087 3086 3085 3084 3083 3083 3082 3081 3081
3122 3122 3123 3124 3125 3126 3127 3127 3128 3128 3128 3128 3128 3128 3128 3128 3128 3127 3127 3126 3126 3125 3125 3124 3123 3123 3122 3121 3120 3119 3119 3118 3118 3117 3117 3116 3116 3115 3115 3114 3113 3113 3113 3112 3112 3111 3111 3111 3110 3110 3110 3111 3111 3110 3110 3109 3109 3108 3108 3108 3106 3107 3106 3104 3105 3104 3102 3101 3100 3098 3095 3095 3096 3095 3093 3090 3088 3087 3087 3086 3085 3084 3083 3082 3081 3081 3080 3079
3122 3123 3124 3125 3126 3127 3127 3128 3128 3128 3129 3129 3129 3129 3129 3128 3128 3127 3127 3126 3126 3125 3125 3124 3123 3122 3122 3121 3120 3119 3118 3118 3118 3117 3117 3117 3116 3116 3115 3114 3114 3114 3113 3113 3112 3111 3111 3111 3111 3110 3110 3111 3110 3109 3109 3108 3108 3108 3107 3107 3106 3106 3105 3103 3103 3102 3101 3100 3098 3097 3094 3093 3093 3093 3092 3090 3087 3085 3085 3084 3083 3082 3081 3080 3079 3078 3077 3076
3122 3123 3124 3125 3126 3127 3128 3128 3129 3129 3129 3129 3129 3129 3129 3129 3128 3128 3127 3127 3126 3125 3125 3124 3123 3123 3122 3121 3120 3119 3118 3118 3119 3118 3118 3117 3117 3116 3116 3115 3115 3114 3114 3114 3113 3112 3111 3111 3110 3110 3111 3111 3110 3109 3109 3108 3108 3107 3107 3107 3106 3105 3104 3102 3102 3101 3100 3099 3097 3095 3093 3092 3091 3090 3089 3088 3086 3085 3083 3082 3081 3080 3079 3078 3077 3076 3075 3073
3123 3124 3125 3126 3127 3128 3128 3129 3129 3129 3129 3129 3129 3129 3129 3129 3128 3128 3128 3127 3126 3125 3125 3124 3123 3123 3122 3121 3121 3119 3119 3119 3120 3119 3119 3118 3118 3117 3117 3116 3116 3115 3115 3114 3113 3112 3112 3111 3111 3111 3110 3110 3110 3109 3108 3108 3108 3107 3106 3106 3105 3104 3103 3102 3101 3100 3099 3098 3096 3094 3092 3090 3089 3088 3087 3086 3085 3084 3082 3081 3080 3079 3077 3076 3075 3073 3072 3071
3124 3125 3126 3127 3128 3128 3129 3129 3129 3129 3129 3129 3129 3129 3129 3129 3129 3128 3128 3127 3126 3126 3125 3124 3124 3123 3122 3122 3121 3120 3120 3121 3121 3120 3120 3119 3119 3118 3117 3117 3117 3116 3115 3114 3114 3113 3112 3111 3111 3111 3110 3109 3109 3109 3108 3108 3107 3106 3106 3105 3104 3103 3102 3101 3100 3099 3097 3096 3095 3093 3091 3089 3088 3086 3084 3083 3083 3082 3081 3079 3078 3077 3075 3074 3072 3071 3069 3068
3125 3126 3127 3128 3128 3129 3129 3130 3130 3129 3129 3130 3130 3129 3129 3129 3129 3129 3128 3127 3126 3126 3125 3124 3124 3123 3123 3122 3122 3121 3122 3122 3121 3121 3121 3120 3119 3119 3118 3117 3117 3116 3115 3115 3114 3113 3112 3112 3111 3110 3109 3109 3109 3108 3108 3107 3106 3106 3106 3105 3104 3103 3102 3100 3099 3098 3097 3095 3093 3091 3089 3088 3087 3085 3083 3082 3081 3080 3079 3077 3076 3074 3073 3072 3070 3069 3067 3066
3126 3127 3127 3128 3129 3130 3130 3130 3130 3130 3130 3130 3130 3130 3130 3130 3129 3129 3128 3127 3127 3126 3125 3125 3124 3124 3124 3123 3123 3123 3123 3123 3122 3122 3121 3121 3120 3119 3118 3118 3117 3116 3116 3115 3114 3114 3113 3112 3111 3110 3109 3109 3109 3108 3107 3107 3106 3106 3106 3105 3104 3103 3102 3100 3098 3098 3097 3095 3094 3091 3088 3086 3085 3084 3082 3081 3081 3079 3077 3076 3074 3072 3071 3069 3068 3067 3065 3064
3127 3127 3128 3129 3130 3130 3130 3130 3130 3130 3130 3130 3130 3130 3130 3130 3129 3129 3128 3128 3127 3126 3126 3126 3125 3125 3125 3124 3124 3124 3124 3124 3123 3123 3122 3122 3121 3120 3119 3118 3118 3117 3116 3116 3115 3114 3113 3112 3112 3111 3110 3109 3109 3108 3107 3107 3106 3106 3105 3105 3104 3103 3102 3101 3099 3098 3096 3095 3094 3092 3088 3085 3084 3083 3081 3080 3080 3078 3076 3074 3073 3071 3069 3068 3066 3065 3063 3062
3128 3128 3129 3130 3130 3130 3131 3131 3131 3131 3131 3131 3130 3130 3130 3130 3129 3129 3129 3128 3128 3128 3127 3127 3127 3126 3126 3126 3126 3126 3125 3125 3124 3124 3123 3122 3122 3121 3120 3119 3119 3118 3117 3116 3115 3115 3114 3113 3112 3111 3110 3109 3109 3108 3108 3107 3107 3106 3105 3104 3103 3102 3102 3101 3100 3099 3096 3094 3093 3091 3088 3085 3083 3082 3081 3080 3078 3077 3075 3073 3071 3070 3068 3066 3064 3063 3061 3060
3128 3129 3130 3130 3131 3131 3131 3131 3131 3131 3131 3131 3130 3130 3130 3130 3130 3130 3130 3129 3129 3129 3129 3128 3128 3128 3128 3128 3127 3127 3126 3126 3125 3125 3124 3123 3123 3122 3121 3120 3119 3118 3117 3117 3116 3115 3114 3113 3112 3111 3110 3110 3109 3109 3108 3108 3107 3106 3105 3104 3103 3103 3102 3101 3100 3099 3097 3094 3093 3090 3087 3083 3081 3080 3079 3078 3077 3076 3074 3072 3070 3068 3066 3065 3062 3060 3058 3057
3129 3130 3130 3131 3131 3131 3132 3132 3131 3131 3131 3131 3131 3131 3131 3131 3131 3131 3131 3131 3131 3130 3130 3130 3130 3129 3128 3128 3128 3128 3128 3127 3126 3125 3125 3124 3123 3123 3121 3120 3120 3118 3118 3117 3116 3115 3114 3113 3112 3111 3110 3109 3109 3109 3108 3107 3106 3106 3106 3105 3104 3104 3103 3101 3099 3099 3097 3094 3092 3089 3086 3082 3079 3078 3078 3076 3075 3074 3072 3070 3068 3066 3064 3062 3060 3058 3056 3055
3130 3130 3131 3132 3132 3132 3132 3132 3132 3132 3132 3132 3132 3132 3132 3132 3132 3132 3132 3132 3132 3131 3131 3131 3131 3130 3129 3129 3129 3129 3128 3127 3127 3127 3126 3125 3124 3123 3122 3121 3120 3119 3118 3117 3116 3115 3114 3114 3112 3111 3110 3109 3108 3108 3108 3108 3107 3106 3106 3105 3104 3103 3102 3100 3099 3097 3095 3093 3091 3089 3085 3081 3078 3077 3076 3074 3073 3071 3069 3067 3066 3064 3062 3060 3058 3056 3054 3052
3131 3131 3132 3132 3133 3133 3133 3133 3133 3133 3133 3133 3133 3134 3133 3133 3133 3134 3133 3133 3133 3132 3132 3132 3131 3131 3130 3130 3130 3130 3129 3129 3128 3127 3126 3125 3124 3123 3122 3121 3120 3118 3118 3117 3116 3115 3115 3114 3112 3111 3110 3109 3108 3107 3107 3108 3107 3106 3105 3105 3104 3102 3100 3098 3097 3095 3093 3092 3090 3089 3085 3080 3077 3075 3073 3072 3070 3069 3067 3065 3064 3062 3060 3058 3057 3055 3052 3050
3132 3132 3133 3133 3133 3133 3133 3134 3134 3134 3135 3135 3135 3135 3135 3135 3134 3135 3135 3134 3134 3134 3133 3133 3132 3132 3131 3132 3132 3131 3130 3129 3128 3127 3126 3125 3124 3123 3122 3121 3120 3119 3118 3116 3116 3115 3114 3113 3112 3112 3111 3110 3109 3108 3107 3107 3106 3105 3105 3104 3103 3101 3098 3097 3096 3094 3093 3091 3088 3087 3084 3079 3075 3073 3071 3070 3068 3067 3065 3063 3062 3060 3058 3057 3055 3053 3051 3048
3133 3133 3134 3134 3134 3134 3135 3135 3136 3136 3136 3136 3136 3136 3135 3135 3136 3136 3136 3135 3136 3135 3134 3134 3134 3132 3132 3133 3132 3130 3130 3130 3129 3128 3127 3125 3124 3123 3122 3121 3120 3119 3117 3116 3116 3115 3114 3113 3113 3112 3110 3109 3108 3107 3107 3107 3107 3105 3104 3103 3100 3099 3097 3097 3095 3093 3091 3089 3086 3083 3080 3078 3074 3070 3069 3068 3067 3065 3063 3061 3059 3058 3056 3055 3053 3051 3049 3046
3134 3134 3135 3135 3135 3136 3136 3136 3137 3137 3138 3137 3137 3137 3136 3136 3137 3137 3137 3137 3138 3137 3135 3135 3134 3132 3133 3133 3132 3132 3132 3131 3130 3128 3127 3126 3124 3123 3122 3121 3120 3119 3118 3117 3117 3115 3114 3114 3112 3111 3110 3109 3108 3108 3108 3108 3107 3106 3104 3103 3100 3099 3098 3097 3095 3092 3088 3084 3082 3080 3077 3075 3072 3068 3066 3066 3065 3064 3061 3059 3057 3055 3054 3052 3050 3047 3046 3043
3135 3135 3136 3136 3137 3137 3137 3138 3138 3138 3139 3139 3139 3138 3137 3138 3139 3139 3139 3140 3139 3137 3136 3136 3134 3134 3135 3134 3133 3133 3133 3131 3129 3128 3127 3126 3124 3123 3122 3121 3120 3119 3119 3118 3117 3116 3115 3114 3112 3112 3111 3111 3110 3110 3109 3109 3107 3106 3104 3102 3101 3100 3097 3095 3092 3088 3086 3081 3077 3077 3074 3071 3070 3066 3064 3064 3063 3061 3059 3057 3055 3053 3051 3049 3046 3044 3042 3040
3136 3136 3137 3137 3138 3139 3139 3139 3140 3140 3140 3140 3141 3140 3139 3140 3141 3141 3141 3140 3139 3138 3138 3137 3137 3137 3136 3135 3135 3134 3133 3131 3130 3128 3127 3126 3125 3124 3122 3121 3120 3120 3119 3118 3117 3116 3115 3113 3113 3113 3113 3112 3112 3111 3109 3108 3107 3105 3104 3102 3100 3099 3095 3092 3090 3086 3085 3080 3073 3072 3069 3066 3067 3066 3063 3061 3060 3058 3055 3053 3052 3050 3047 3044 3042 3040 3038 3036
3137 3137 3138 3139 3140 3140 3141 3141 3141 3141 3141 3142 3142 3142 3141 3142 3142 3142 3141 3140 3140 3140 3139 3139 3139 3138 3137 3136 3135 3134 3133 3132 3130 3129 3128 3126 3125 3124 3123 3122 3121 3120 3120 3118 3118 3116 3114 3114 3115 3115 3114 3113 3112 3110 3109 3108 3107 3104 3103 3101 3100 3098 3092 3086 3086 3085 3083 3079 3072 3069 3066 3062 3063 3064 3061 3058 3056 3054 3051 3050 3048 3046 3043 3041 3038 3037 3035 3032
3138 3139 3140 3140 3141 3142 3142 3142 3143 3143 3143 3143 3144 3144 3143 3143 3143 3143 3142 3141 3141 3141 3141 3140 3140 3139 3138 3137 3136 3135 3133 3132 3131 3129 3128 3127 3126 3124 3123 3122 3121 3121 3120 3119 3118 3116 3115 3116 3116 3116 3114 3113 3111 3110 3109 3108 3106 3104 3103 3102 3099 3097 3092 3084 3081 3080 3079 3077 3072 3068 3064 3059 3059 3061 3059 3055 3053 3051 3049 3047 3045 3042 3040 3038 3036 3034 3031 3029
3139 3140 3141 3142 3142 3143 3143 3144 3145 3145 3145 3145 3145 3145 3145 3144 3144 3144 3143 3142 3142 3142 3142 3142 3141 3140 3138 3138 3136 3135 3133 3132 3131 3130 3128 3127 3126 3125 3124 3123 3122 3121 3120 3119 3118 3117 3117 3117 3117 3116 3114 3112 3111 3110 3108 3106 3105 3104 3103 3102 3099 3095 3092 3087 3081 3076 3074 3073 3071 3067 3063 3058 3058 3058 3056 3053 3050 3049 3048 3045 3042 3040 3038 3036 3034 3031 3028 3026
3140 3141 3142 3143 3144 3144 3145 3145 3146 3146 3146 3146 3146 3146 3145 3145 3145 3145 3144 3143 3143 3143 3143 3142 3142 3140 3139 3138 3137 3135 3134 3133 3131 3130 3129 3128 3127 3125 3124 3123 3122 3121 3120 3120 3119 3118 3118 3118 3117 3115 3113 3112 3111 3109 3107 3105 3104 3103 3102 3102 3099 3093 3089 3085 3081 3077 3072 3070 3069 3067 3063 3058 3057 3057 3054 3050 3048 3047 3046 3043 3040 3038 3036 3033 3031 3028 3025 3022
3142 3143 3144 3145 3145 3146 3146 3147 3147 3147 3147 3147 3147 3147 3146 3146 3145 3145 3145 3144 3144 3144 3144 3143 3142 3141 3140 3139 3137 3136 3134 3133 3132 3131 3130 3128 3127 3126 3125 3124 3123 3122 3121 3120 3120 3119 3118 3118 3116 3115 3113 3112 3111 3109 3107 3105 3103 3102 3101 3099 3096 3091 3087 3082 3079 3078 3074 3070 3068 3067 3066 3060 3054 3055 3054 3050 3047 3045 3043 3041 3038 3036 3034 3031 3028 3025 3022 3019
3143 3144 3145 3146 3147 3147 3148 3148 3148 3148 3148 3148 3148 3147 3147 3146 3146 3145 3145 3145 3146 3145 3145 3144 3143 3142 3141 3139 3138 3136 3135 3134 3133 3132 3130 3129 3128 3127 3126 3125 3124 3123 3122 3121 3120 3119 3118 3117 3116 3114 3113 3112 3110 3108 3107 3105 3102 3101 3099 3096 3093 3088 3085 3080 3078 3077 3074 3071 3068 3067 3067 3061 3053 3052 3053 3049 3045 3043 3042 3040 3038 3035 3032 3028 3025 3023 3020 3017
3145 3146 3147 3147 3148 3148 3148 3149 3149 3148 3148 3148 3148 3147 3147 3147 3146 3146 3145 3147 3148 3147 3146 3145 3144 3143 3141 3140 3139 3137 3136 3135 3133 3132 3131 3130 3128 3127 3126 3125 3124 3123 3122 3121 3121 3120 3118 3117 3115 3114 3112 3111 3110 3108 3107 3104 3102 3099 3096 3094 3091 3087 3083 3078 3076 3075 3073 3071 3069 3065 3065 3063 3054 3050 3050 3047 3044 3042 3040 3039 3036 3032 3029 3027 3024 3023 3018 3015
3146 3147 3148 3148 3149 3149 3149 3149 3149 3149 3148 3148 3148 3148 3148 3147 3147 3146 3146 3148 3150 3148 3147 3146 3145 3144 3143 3141 3140 3138 3137 3135 3134 3132 3131 3130 3128 3127 3126 3125 3124 3123 3122 3121 3121 3120 3118 3116 3115 3114 3112 3111 3110 3109 3107 3104 3101 3098 3095 3092 3088 3085 3081 3076 3074 3073 3071 3070 3068 3065 3065 3065 3056 3048 3048 3046 3044 3043 3040 3037 3033 3029 3027 3026 3024 3020 3015 3011
3148 3149 3149 3150 3150 3150 3150 3150 3149 3149 3149 3148 3148 3148 3148 3147 3147 3147 3147 3149 3150 3149 3148 3147 3146 3145 3144 3142 3141 3139 3138 3136 3135 3133 3132 3130 3129 3128 3127 3126 3124 3123 3122 3121 3121 3119 3117 3116 3115 3114 3112 3111 3110 3108 3106 3103 3100 3097 3093 3089 3084 3081 3078 3074 3074 3073 3071 3068 3067 3065 3066 3066 3057 3049 3048 3046 3044 3043 3040 3037 3033 3029 3026 3024 3021 3016 3011 3007
3149 3150 3150 3150 3150 3150 3150 3150 3149 3149 3149 3148 3148 3148 3148 3148 3147 3147 3149 3151 3150 3150 3149 3148 3147 3146 3144 3143 3141 3139 3138 3137 3135 3134 3132 3131 3130 3128 3127 3126 3124 3123 3122 3121 3120 3119 3117 3116 3114 3113 3113 3111 3109 3107 3105 3103 3099 3096 3093 3088 3081 3076 3073 3073 3072 3072 3071 3067 3064 3064 3063 3062 3056 3049 3047 3045 3042 3042 3039 3034 3031 3027 3024 3021 3016 3011 3007 3003
3150 3151 3151 3151 3151 3151 3150 3150 3150 3149 3149 3149 3149 3149 3148 3148 3147 3149 3150 3151 3150 3150 3150 3149 3147 3146 3144 3143 3141 3139 3138 3136 3135 3133 3132 3130 3129 3127 3126 3125 3124 3123 3123 3121 3120 3118 3117 3115 3114 3113 3112 3110 3107 3104 3102 3100 3097 3095 3092 3088 3083 3078 3074 3073 3072 3072 3072 3066 3063 3063 3061 3058 3055 3050 3046 3042 3039 3039 3037 3031 3028 3025 3021 3016 3011 3006 3003 2999
3151 3151 3151 3151 3151 3151 3151 3151 3150 3150 3150 3149 3149 3149 3148 3148 3150 3151 3151 3151 3151 3151 3150 3149 3148 3146 3145 3143 3141 3140 3138 3136 3135 3133 3132 3130 3129 3128 3127 3127 3126 3125 3124 3122 3120 3118 3116 3114 3114 3113 3111 3110 3107 3103 3100 3098 3096 3094 3092 3089 3088 3086 3084 3081 3076 3074 3072 3064 3059 3062 3060 3056 3054 3051 3047 3043 3039 3037 3034 3030 3027 3024 3019 3012 3006 3002 2998 2994
3152 3152 3152 3152 3152 3152 3152 3151 3151 3150 3150 3150 3150 3149 3149 3149 3152 3153 3152 3152 3152 3151 3150 3150 3148 3147 3145 3143 3142 3140 3138 3137 3136 3134 3133 3132 3130 3129 3129 3128 3127 3127 3125 3123 3121 3120 3118 3115 3114 3113 3111 3109 3107 3104 3102 3099 3097 3096 3094 3093 3092 3091 3091 3086 3080 3076 3073 3063 3056 3057 3056 3054 3052 3048 3045 3041 3038 3036 3033 3029 3025 3021 3015 3007 3002 2998 2994 2989
3153 3153 3153 3153 3153 3153 3152 3152 3152 3151 3151 3151 3150 3149 3149 3151 3153 3154 3153 3153 3152 3151 3150 3149 3148 3147 3145 3144 3142 3141 3139 3138 3136 3135 3134 3133 3132 3130 3129 3128 3128 3127 3125 3123 3122 3121 3120 3117 3115 3113 3112 3109 3106 3104 3102 3099 3098 3096 3094 3093 3091 3090 3090 3086 3080 3077 3074 3064 3056 3054 3053 3052 3052 3047 3042 3039 3037 3035 3030 3023 3019 3015 3008 3003 2998 2995 2991 2987
3154 3154 3154 3154 3153 3153 3153 3153 3152 3152 3152 3151 3151 3150 3150 3153 3154 3154 3154 3154 3153 3152 3150 3149 3148 3147 3146 3144 3143 3142 3140 3139 3137 3136 3134 3133 3132 3131 3130 3129 3128 3126 3125 3124 3122 3120 3119 3116 3114 3112 3111 3108 3105 3104 3101 3098 3097 3094 3092 3091 3090 3088 3086 3084 3079 3075 3072 3066 3056 3052 3049 3047 3048 3044 3040 3038 3035 3031 3026 3020 3016 3010 3004 3001 2997 2992 2989 2986
3155 3155 3155 3154 3154 3154 3154 3154 3153 3153 3152 3152 3151 3151 3153 3154 3155 3155 3155 3154 3153 3152 3151 3150 3148 3147 3146 3145 3144 3143 3142 3140 3139 3137 3136 3134 3133 3132 3131 3129 3128 3126 3125 3124 3123 3121 3118 3114 3112 3112 3110 3108 3105 3103 3101 3099 3097 3094 3091 3089 3087 3086 3084 3084 3080 3072 3070 3064 3054 3050 3047 3044 3044 3040 3036 3035 3030 3026 3022 3018 3012 3007 3002 2999 2995 2990 2987 2982
3156 3156 3155 3155 3156 3155 3155 3155 3154 3153 3153 3153 3152 3152 3154 3155 3155 3155 3155 3154 3154 3153 3152 3150 3149 3148 3147 3146 3145 3144 3142 3140 3139 3138 3136 3135 3133 3132 3131 3130 3129 3127 3125 3124 3123 3122 3118 3113 3111 3111 3110 3107 3104 3103 3100 3098 3097 3094 3092 3089 3086 3085 3084 3084 3081 3075 3070 3062 3050 3046 3045 3043 3042 3038 3033 3031 3026 3022 3018 3013 3008 3003 2999 2996 2991 2987 2983 2978
3157 3157 3157 3157 3156 3156 3156 3155 3154 3154 3154 3153 3153 3154 3156 3156 3156 3156 3155 3155 3154 3153 3152 3151 3150 3150 3148 3147 3145 3144 3142 3140 3139 3138 3136 3135 3134 3132 3131 3130 3129 3127 3126 3125 3123 3122 3119 3114 3111 3110 3109 3106 3104 3103 3101 3098 3096 3093 3091 3088 3086 3086 3085 3083 3082 3078 3073 3064 3051 3044 3040 3037 3040 3037 3032 3029 3023 3019 3014 3008 3005 3001 2996 2993 2988 2983 2979 2974
3159 3159 3158 3158 3158 3157 3156 3155 3155 3156 3155 3154 3155 3156 3157 3157 3157 3156 3156 3155 3154 3154 3153 3152 3151 3150 3148 3147 3145 3143 3142 3140 3139 3138 3137 3136 3134 3133 3131 3130 3129 3127 3126 3125 3123 3121 3119 3116 3112 3107 3106 3105 3103 3102 3100 3098 3095 3091 3088 3087 3085 3085 3083 3081 3079 3077 3076 3068 3057 3049 3037 3031 3037 3037 3031 3027 3023 3018 3013 3005 3001 2998 2994 2990 2985 2980 2975 2970
3161 3160 3159 3159 3158 3157 3157 3157 3158 3157 3156 3156 3157 3157 3157 3158 3157 3157 3156 3156 3155 3154 3153 3152 3151 3150 3148 3147 3145 3143 3142 3140 3139 3138 3137 3136 3135 3133 3132 3130 3129 3127 3126 3124 3122 3119 3117 3116 3112 3106 3103 3103 3102 3100 3099 3097 3095 3090 3087 3086 3084 3083 3081 3080 3076 3073 3075 3071 3062 3055 3040 3028 3033 3035 3030 3027 3022 3016 3010 3003 2997 2994 2990 2986 2981 2977 2973 2967
3163 3161 3160 3160 3159 3159 3159 3160 3160 3159 3158 3158 3159 3158 3158 3158 3158 3157 3157 3156 3155 3155 3154 3153 3151 3150 3148 3147 3145 3144 3142 3140 3140 3139 3138 3137 3135 3134 3132 3130 3128 3127 3125 3123 3121 3119 3116 3114 3110 3106 3104 3103 3101 3098 3096 3094 3092 3088 3086 3084 3083 3082 3080 3080 3076 3069 3070 3068 3062 3057 3041 3026 3030 3033 3027 3024 3020 3013 3008 3002 2996 2991 2986 2982 2977 2972 2969 2963
3164 3163 3162 3162 3162 3162 3162 3161 3161 3161 3160 3159 3159 3159 3159 3159 3158 3158 3157 3157 3156 3155 3154 3153 3151 3150 3148 3147 3145 3144 3142 3141 3140 3139 3138 3137 3135 3133 3131 3129 3127 3125 3124 3122 3120 3118 3116 3113 3110 3104 3101 3099 3097 3096 3094 3092 3089 3087 3085 3083 3081 3081 3079 3078 3076 3069 3067 3063 3059 3055 3036 3019 3025 3030 3024 3020 3015 3009 3004 2999 2994 2988 2981 2977 2973 2968 2963 2958
3165 3164 3164 3164 3164 3164 3163 3162 3162 3162 3160 3160 3160 3160 3160 3159 3159 3159 3158 3157 3156 3155 3154 3152 3151 3150 3148 3147 3146 3145 3143 3142 3141 3139 3138 3136 3134 3132 3130 3128 3126 3124 3122 3121 3119 3117 3116 3114 3111 3106 3100 3095 3092 3092 3090 3089 3088 3086 3086 3084 3080 3079 3077 3075 3073 3070 3065 3060 3059 3056 3033 3013 3019 3026 3021 3017 3011 3004 3001 2996 2992 2986 2978 2973 2969 2963 2959 2953
3167 3166 3166 3166 3166 3166 3164 3163 3163 3162 3161 3161 3161 3161 3161 3160 3160 3159 3158 3157 3156 3155 3154 3153 3152 3150 3149 3148 3147 3145 3144 3143 3141 3139 3137 3135 3133 3131 3129 3127 3125 3123 3122 3120 3118 3117 3115 3114 3112 3110 3108 3103 3098 3095 3092 3089 3086 3084 3083 3083 3080 3077 3075 3073 3070 3067 3061 3055 3054 3054 3035 3014 3015 3021 3017 3012 3006 3000 2996 2991 2987 2983 2977 2970 2965 2959 2954 2949
3169 3169 3168 3168 3168 3167 3165 3164 3164 3163 3163 3163 3162 3162 3161 3161 3160 3159 3158 3158 3156 3155 3154 3153 3152 3151 3149 3148 3146 3145 3143 3142 3141 3139 3136 3134 3132 3130 3128 3126 3124 3122 3121 3120 3118 3117 3115 3113 3112 3111 3111 3109 3103 3099 3095 3090 3086 3081 3080 3080 3078 3075 3072 3071 3069 3065 3059 3051 3044 3044 3037 3018 3011 3016 3014 3007 3002 2997 2992 2986 2981 2978 2973 2967 2961 2955 2949 2944
3171 3170 3170 3169 3168 3168 3166 3166 3166 3165 3164 3163 3163 3163 3162 3161 3161 3160 3159 3158 3157 3156 3155 3154 3152 3151 3149 3147 3146 3144 3143 3141 3140 3137 3135 3133 3131 3129 3127 3125 3123 3122 3121 3119 3117 3116 3114 3113 3112 3110 3109 3106 3101 3097 3093 3090 3086 3081 3078 3078 3076 3073 3069 3069 3068 3063 3059 3052 3035 3029 3032 3021 3009 3011 3011 3004 3000 2995 2989 2984 2979 2974 2969 2963 2957 2950 2944 2939
3172 3171 3171 3170 3169 3169 3168 3167 3167 3166 3165 3164 3164 3163 3163 3162 3161 3160 3159 3158 3157 3156 3155 3154 3152 3151 3149 3147 3145 3144 3142 3140 3138 3136 3134 3131 3129 3128 3126 3124 3123 3121 3120 3118 3116 3115 3113 3112 3110 3107 3105 3103 3099 3095 3091 3088 3084 3080 3078 3076 3073 3071 3068 3066 3065 3062 3060 3055 3040 3027 3026 3020 3012 3009 3007 3003 2999 2993 2988 2983 2977 2970 2964 2958 2952 2946 2940 2934
3174 3173 3172 3171 3171 3170 3169 3168 3167 3166 3166 3165 3164 3164 3163 3162 3161 3160 3160 3159 3157 3156 3155 3154 3152 3151 3149 3147 3145 3143 3140 3138 3136 3134 3132 3130 3129 3127 3125 3123 3122 3121 3119 3118 3116 3114 3113 3111 3108 3105 3102 3099 3096 3093 3090 3085 3081 3078 3076 3074 3071 3069 3067 3063 3061 3059 3057 3053 3044 3033 3025 3019 3015 3010 3005 3001 2998 2992 2987 2982 2974 2967 2960 2953 2947 2942 2936 2930
3175 3174 3173 3172 3172 3171 3170 3169 3168 3167 3166 3166 3165 3164 3164 3163 3162 3161 3159 3158 3157 3156 3155 3153 3152 3150 3148 3146 3144 3142 3140 3137 3135 3133 3132 3130 3128 3127 3125 3123 3122 3120 3119 3117 3116 3114 3112 3110 3107 3102 3098 3096 3093 3091 3087 3082 3078 3076 3073 3072 3070 3067 3064 3061 3057 3054 3049 3043 3038 3032 3024 3017 3014 3009 3004 3000 2995 2989 2983 2977 2971 2964 2957 2950 2944 2937 2931 2924
3176 3175 3174 3173 3172 3172 3171 3170 3169 3168 3167 3166 3166 3165 3164 3163 3162 3161 3160 3158 3157 3156 3154 3153 3151 3149 3148 3145 3143 3141 3139 3137 3135 3133 3132 3130 3128 3127 3125 3123 3121 3120 3118 3116 3115 3113 3110 3108 3105 3100 3095 3093 3091 3088 3083 3079 3076 3074 3072 3070 3068 3064 3060 3058 3055 3052 3047 3038 3030 3026 3021 3014 3009 3005 2999 2995 2992 2986 2980 2974 2969 2962 2956 2950 2943 2935 2926 2919
3176 3176 3175 3174 3173 3172 3172 3171 3170 3169 3168 3167 3166 3165 3164 3163 3162 3161 3160 3158 3157 3155 3154 3152 3150 3148 3146 3144 3142 3141 3139 3137 3135 3133 3131 3130 3128 3126 3125 3123 3121 3119 3117 3116 3114 3111 3109 3106 3103 3100 3095 3090 3088 3085 3081 3077 3074 3072 3070 3068 3064 3062 3058 3055 3053 3050 3046 3039 3030 3023 3018 3012 3006 3000 2993 2988 2987 2984 2979 2973 2967 2961 2955 2948 2942 2934 2926 2917